Find Iris

NORAD ID: 46278 Int'l Des: 2020-061 Owner: GHG Country: CA operational
LEOCIRCULARRETROGRADESSO

实时位置

正在加载3D地球...

关于 Iris

正在加载描述...

即将过境

Passes for default location (London). Set your location on the main map for personalized predictions.

高度历史

Loading altitude history...

两行轨道根数

1 46278U 20061G 26105.85913998 .00020320 00000-0 19125-3 0 9990
2 46278 97.2123 189.1402 0000966 190.7165 169.4075 15.67138013313709
Epoch: Apr 15, 2026 • Age: 6 hours

当前状态

高度 394.8 km
速度 7.67 km/s
星下点 -78.84°S, 90.58°E
发射日期 Sep 3, 2020
运行时间 5.6 years
类型 other

技术详情

分类 Payload
质量 15.00 kg
干质量 15.00 kg
总质量 15.00 kg
长度 0.40 m
直径 0.20 m
跨度 0.40 m
形状 Box
制造商 UTIAS
平台类型 Nemo-V1
阶段状态 In Orbit
所有者/国家 GHG/CA

Most Searched